Date String (YYYY-MM-DD hh:mm:ss) UTC,Instrument flags,Ambient pressure (hPa),Sample flow (lpm),Bypass flow (lpm),Sample temperature (°C),Ambient temperature (°C),ASC tube jacket temperature (°C),LED temperature (°C),Box temperature (°C),Sample RH (%),Mass concentration (μg/m³),Mass concentration (μg/m³)
DateTimeUTC,F1_M11,P_M11,Q1_M11,Q2_M11,T1_M11,T2_M11,T3_M11,T4_M11,T5_M11,U1_M11,X0_M11,X2_M11
2021-08-13 12:00:00,,0834.1,5.00,0.00,29.4,27.3,00.0,38.9,31.3,29.6,0027.58,0007.57
2021-08-13 12:01:00,,0834.1,5.00,0.00,29.4,27.6,00.0,38.8,31.3,29.7,0027.65,0007.56
2021-08-13 12:02:00,,0834.1,4.99,0.00,29.5,27.8,00.0,38.8,31.4,29.7,0026.78,0007.52
2021-08-13 12:03:00,,0834.1,5.01,0.00,29.5,28.1,00.0,38.8,31.4,29.6,0025.57,0007.54
2021-08-13 12:04:00,,0834.1,5.00,0.00,29.5,28.2,00.0,38.8,31.5,29.6,0025.51,0007.54
2021-08-13 12:05:00,,0834.1,4.99,0.00,29.5,28.4,00.0,38.8,31.5,29.6,0025.12,0007.49
2021-08-13 12:06:00,,0834.1,5.00,0.00,29.6,28.5,00.0,38.8,31.5,29.5,0025.77,0007.56
2021-08-13 12:07:00,,0834.1,5.00,0.00,29.6,28.6,00.0,38.8,31.5,29.4,0025.55,0007.59
2021-08-13 12:08:00,,0834.1,5.01,0.00,29.6,28.7,00.0,38.8,31.6,29.4,0024.55,0007.55
2021-08-13 12:09:00,,0834.2,5.01,0.00,29.7,28.7,00.0,38.8,31.6,29.4,0023.74,0007.51
2021-08-13 12:10:00,,0834.3,4.99,0.00,29.7,28.8,00.0,38.8,31.7,29.4,0024.41,0007.54
2021-08-13 12:11:00,,0834.2,5.01,0.00,29.7,28.8,00.0,38.8,31.7,29.3,0025.18,0007.55
2021-08-13 12:12:00,,0834.2,5.00,0.00,29.8,28.9,00.0,38.8,31.7,29.2,0024.87,0007.58
2021-08-13 12:13:00,,0834.2,5.01,0.00,29.8,28.9,00.0,38.8,31.7,29.1,0024.64,0007.62
2021-08-13 12:14:00,,0834.3,4.99,0.00,29.8,29.0,00.0,38.9,31.8,29.0,0023.97,0007.58
2021-08-13 12:15:00,,0834.3,5.01,0.00,29.8,29.0,00.0,38.9,31.7,29.0,0023.42,0007.53
2021-08-13 12:16:00,,0834.3,5.00,0.00,29.9,29.0,00.0,38.9,31.8,28.9,0023.13,0007.51
2021-08-13 12:17:00,,0834.3,5.00,0.00,29.9,29.1,00.0,38.9,31.9,28.8,0022.99,0007.50
2021-08-13 12:18:00,,0834.3,5.00,0.00,29.9,29.1,00.0,38.9,31.9,28.7,0024.27,0007.51
2021-08-13 12:19:00,,0834.3,4.99,0.00,30.0,29.1,00.0,39.0,31.9,28.7,0023.76,0007.45
2021-08-13 12:20:00,,0834.2,5.02,0.00,30.0,29.2,00.0,39.0,31.9,28.5,0022.60,0007.41
2021-08-13 12:21:00,,0834.1,4.99,0.00,30.0,29.2,00.0,39.0,31.9,28.3,0022.58,0007.43
2021-08-13 12:22:00,,0834.1,5.00,0.00,30.0,29.2,00.0,39.0,31.9,28.1,0023.31,0007.49
2021-08-13 12:23:00,,0834.1,4.99,0.00,30.0,29.2,00.0,39.0,31.9,28.1,0023.07,0007.49
2021-08-13 12:24:00,,0834.1,5.01,0.00,30.1,29.3,00.0,39.1,32.0,28.1,0023.48,0007.55
2021-08-13 12:25:00,,0834.1,4.99,0.00,30.1,29.3,00.0,39.1,32.0,28.1,0023.83,0007.65
2021-08-13 12:26:00,,0834.1,5.00,0.00,30.1,29.1,00.0,39.1,31.9,28.0,0024.31,0007.72
2021-08-13 12:27:00,,0834.1,5.02,0.00,30.0,27.5,00.0,39.1,31.5,28.0,0024.74,0007.82
2021-08-13 12:28:00,,0834.1,4.99,0.00,29.8,26.2,00.0,39.0,31.2,28.3,0026.30,0007.87
2021-08-13 12:29:00,,0834.1,5.00,0.00,29.6,26.3,00.0,39.0,31.1,28.6,0024.70,0007.88
2021-08-13 12:30:00,,0834.1,5.00,0.00,29.5,26.7,00.0,38.9,31.1,28.8,0024.59,0008.02
2021-08-13 12:31:00,,0834.1,5.00,0.00,29.4,27.1,00.0,38.9,31.2,28.9,0024.74,0008.20
2021-08-13 12:32:00,,0834.2,4.99,0.00,29.4,27.4,00.0,38.9,31.3,28.9,0024.87,0008.26
2021-08-13 12:33:00,,0834.3,5.01,0.00,29.4,27.7,00.0,38.8,31.3,28.8,0023.15,0008.24
2021-08-13 12:34:00,,0834.3,4.99,0.00,29.4,27.9,00.0,38.8,31.4,28.8,0023.39,0008.26
2021-08-13 12:35:00,,0834.3,5.01,0.00,29.5,28.1,00.0,38.8,31.4,28.7,0023.60,0008.29
2021-08-13 12:36:00,,0834.3,5.00,0.00,29.5,28.2,00.0,38.8,31.5,28.7,0023.91,0008.28
2021-08-13 12:37:00,,0834.3,4.99,0.00,29.5,28.4,00.0,38.8,31.5,28.7,0023.44,0008.27
2021-08-13 12:38:00,,0834.4,5.01,0.00,29.6,28.5,00.0,38.8,31.6,28.7,0023.72,0008.22
2021-08-13 12:39:00,,0834.4,4.99,0.00,29.6,28.5,00.0,38.8,31.6,28.7,0022.00,0008.17
2021-08-13 12:40:00,,0834.5,4.99,0.00,29.6,28.6,00.0,38.8,31.6,28.7,0021.56,0008.20
2021-08-13 12:41:00,,0834.4,5.01,0.00,29.7,28.7,00.0,38.8,31.7,28.6,0021.96,0008.15
2021-08-13 12:42:00,,0834.4,5.00,0.00,29.7,28.8,00.0,38.8,31.7,28.7,0023.09,0008.09
2021-08-13 12:43:00,,0834.4,5.00,0.00,29.7,28.9,00.0,38.8,31.7,28.6,0023.29,0008.01
2021-08-13 12:44:00,,0834.4,4.99,0.00,29.8,28.9,00.0,38.8,31.7,28.4,0024.07,0008.02
2021-08-13 12:45:00,,0834.5,5.01,0.00,29.8,29.0,00.0,38.8,31.7,28.4,0023.75,0008.06
2021-08-13 12:46:00,,0834.6,5.00,0.00,29.8,29.0,00.0,38.9,31.8,28.5,0023.03,0008.04
2021-08-13 12:47:00,,0834.6,5.00,0.00,29.8,29.1,00.0,38.9,31.8,28.5,0022.93,0008.04
2021-08-13 12:48:00,,0834.7,5.00,0.00,29.9,29.1,00.0,38.9,31.7,28.4,0024.31,0008.06
2021-08-13 12:49:00,,0834.7,4.99,0.00,29.9,29.1,00.0,38.9,31.8,28.4,0023.49,0008.02
2021-08-13 12:50:00,,0834.7,5.02,0.00,29.9,29.2,00.0,38.9,31.8,28.5,0024.30,0008.00
2021-08-13 12:51:00,,0834.7,4.99,0.00,29.9,29.2,00.0,39.0,31.9,28.5,0025.44,0007.95
2021-08-13 12:52:00,,0834.7,5.01,0.00,30.0,29.2,00.0,39.0,31.9,28.3,0025.95,0007.91
2021-08-13 12:53:00,,0834.8,5.00,0.00,30.0,29.3,00.0,39.0,31.9,28.2,0025.95,0007.91
2021-08-13 12:54:00,,0834.8,5.00,0.00,30.0,29.3,00.0,39.0,32.0,28.1,0025.79,0007.86
2021-08-13 12:55:00,,0834.8,5.00,0.00,30.1,29.3,00.0,39.0,32.0,28.0,0025.55,0007.82
2021-08-13 12:56:00,,0834.8,5.01,0.00,30.1,29.3,00.0,39.1,32.0,27.9,0026.11,0007.77
2021-08-13 12:57:00,,0834.8,4.99,0.00,30.1,29.4,00.0,39.1,32.0,27.9,0027.54,0007.80
2021-08-13 12:58:00,,0834.8,5.01,0.00,30.1,29.4,00.0,39.1,32.0,27.9,0027.44,0007.83
2021-08-13 12:59:00,,0834.8,5.02,0.00,30.1,28.7,00.0,39.1,31.9,27.9,0026.81,0007.84
